GFSCGP_700_spd_159.txt.gz
Wind_Speed
28 24 29 24 15 13 11 11 14 16 18 29 21 16 6 6 10 11 17 18 15 13 11 10 10 9 10 10 12 12 12 10 9 9 9 8 8 9 8 8 5 9 14 14
26 29 27 23 19 17 14 17 21 24 18 30 24 19 11 5 5 5 6 9 15 15 13 10 11 12 10 10 9 10 10 9 9 7 7 8 8 6 6 8 6 5 11 12
27 22 21 21 21 17 18 22 21 27 16 28 22 22 22 17 12 10 9 6 9 11 13 12 10 12 10 10 10 9 7 7 7 8 8 6 6 5 6 6 6 5 2 4
28 29 18 21 22 19 19 6 16 15 28 27 24 11 28 24 20 20 17 16 10 8 10 10 10 11 12 12 10 12 12 11 10 10 7 5 7 7 6 5 2 3 3 5
25 21 21 22 17 12 11 8 4 16 31 25 21 10 13 26 27 25 21 15 18 12 9 5 6 8 9 9 11 11 11 12 13 11 9 8 7 6 4 3 3 5 7 7
28 17 20 25 20 14 15 11 1 19 23 10 15 29 12 21 24 18 20 17 15 17 15 11 7 9 8 9 11 11 9 6 8 9 8 8 9 11 9 8 8 10 10 11
30 28 25 23 19 15 12 12 2 1 0 7 6 19 24 24 21 20 13 14 9 16 20 17 15 10 5 11 11 11 7 5 12 11 10 11 11 16 15 13 14 17 18 18
23 19 30 25 22 12 9 15 7 5 4 5 3 6 21 25 17 14 14 8 10 17 19 22 19 15 14 12 12 14 17 8 13 11 12 17 20 21 20 22 24 24 24 25
23 22 26 30 21 13 15 15 12 8 1 3 7 14 26 11 5 12 12 15 14 14 16 17 20 23 20 17 14 13 15 5 17 21 22 20 22 26 26 26 31 31 26 34
8 19 28 27 21 19 17 15 10 6 2 4 6 13 18 7 6 12 16 15 10 9 12 14 20 25 24 21 18 16 19 15 18 23 28 23 29 27 33 38 37 32 32 24
31 17 21 30 28 25 21 24 16 9 5 7 1 6 12 14 13 14 15 15 11 6 6 10 13 17 26 26 24 22 23 21 22 27 31 26 28 28 37 45 36 40 35 37
36 21 25 23 21 23 23 23 24 18 8 6 5 3 8 12 15 18 17 16 10 6 3 2 6 15 15 24 29 29 31 32 28 30 29 32 33 35 20 18 21 34 38 39
35 38 23 25 25 25 20 23 23 28 25 21 8 4 13 17 20 18 18 17 8 3 2 4 6 7 8 11 16 22 27 32 29 32 28 32 33 20 21 19 17 20 24 37
33 36 41 32 24 21 20 19 22 29 29 26 20 13 21 21 21 21 20 13 9 11 6 5 3 3 3 4 9 14 19 25 26 31 33 29 29 23 21 18 17 23 23 25
42 42 43 36 40 33 20 19 20 31 37 31 32 25 21 24 22 26 24 16 12 8 11 10 5 1 1 6 10 12 15 19 24 29 30 31 26 22 16 17 17 21 24 29
42 37 43 41 35 42 35 27 24 21 38 36 34 28 18 24 28 29 25 18 18 13 13 11 9 7 7 10 14 15 15 18 21 27 28 24 17 16 18 21 25 30 34 35
11 45 46 37 38 38 33 37 29 20 19 19 26 30 28 28 28 28 29 22 20 15 13 9 9 4 4 6 8 9 11 15 15 16 16 18 20 22 25 30 34 36 34 33
16 15 31 38 31 8 34 35 30 24 19 23 13 14 19 24 28 31 29 24 22 14 11 6 2 2 1 2 5 5 6 7 9 12 14 17 21 25 30 34 35 32 30 31
20 19 15 25 32 20 24 20 30 26 23 22 23 18 17 25 30 35 32 26 17 15 13 7 3 6 4 2 3 4 6 8 11 15 18 23 28 32 32 30 27 25 24 25
22 22 16 24 20 15 38 26 21 20 27 24 26 26 18 30 38 38 39 34 29 21 14 8 8 7 7 9 10 11 12 15 19 22 27 32 35 32 28 26 25 24 25 26
27 24 21 19 18 22 32 30 27 28 31 24 27 27 24 27 30 30 38 37 32 21 14 9 11 8 10 10 10 11 15 19 23 27 32 35 33 30 29 28 28 29 28 28
26 17 16 15 16 9 28 30 34 29 29 28 29 25 26 18 26 33 36 39 32 19 10 10 8 9 9 9 11 15 20 25 28 32 36 34 30 29 29 29 28 28 28 29
19 18 15 13 17 16 25 27 26 28 26 23 24 32 27 24 25 33 40 35 24 13 9 9 8 10 11 14 17 20 25 28 32 34 32 29 27 27 28 27 27 28 28 28
23 18 15 14 19 23 23 21 23 20 22 23 22 25 29 28 30 34 30 23 19 11 9 9 12 13 14 17 20 24 28 32 33 29 27 25 24 25 26 26 26 26 26 26
28 18 19 19 20 19 26 23 19 18 17 20 21 19 28 35 34 29 24 19 13 12 12 12 13 14 16 19 23 27 31 30 27 24 20 21 21 21 23 22 23 26 27 27
29 32 28 30 26 20 20 18 18 18 20 16 18 19 24 24 23 25 19 17 14 13 12 12 12 14 18 23 27 29 28 24 21 18 18 18 19 20 20 23 26 28 27 28

GFSCGP_700_spd_165.txt.gz
Wind_Speed
26 22 20 15 8 5 10 13 8 9 9 10 10 6 5 4 10 11 11 9 8 8 11 13 14 15 16 16 17 18 18 18 17 15 14 12 11 11 8 7 9 10 10 10
29 28 23 16 11 9 8 9 9 8 13 13 14 13 12 12 7 9 9 12 10 9 9 10 11 12 12 13 13 13 14 13 13 12 12 12 12 10 5 8 10 9 10 12
35 30 29 22 17 14 14 13 13 8 10 14 14 14 16 17 16 14 11 11 13 11 10 9 9 10 11 10 9 10 10 9 9 10 10 9 6 5 7 10 10 11 12 10
31 34 22 25 26 20 19 16 13 13 14 6 11 2 4 18 18 18 15 12 13 11 13 13 12 11 9 9 8 7 4 5 5 5 5 6 6 6 9 11 12 12 12 10
31 30 32 29 28 33 19 16 11 15 11 7 14 5 7 7 20 27 20 17 16 13 11 13 13 12 12 11 10 10 7 7 1 3 5 6 6 7 9 8 12 13 13 13
23 27 24 35 30 24 22 17 10 2 9 5 8 10 5 6 7 8 21 22 19 16 13 14 15 15 14 14 12 11 10 8 5 2 6 7 8 9 10 8 10 10 14 14
31 19 26 26 25 20 23 15 5 4 5 1 7 10 17 9 7 7 7 9 21 19 17 17 16 14 12 10 11 12 12 3 4 11 7 9 10 11 12 11 14 15 17 20
24 20 29 24 28 24 25 18 8 4 4 4 7 8 12 8 9 9 7 17 19 25 22 21 20 16 14 13 11 11 12 14 9 5 8 9 12 14 10 11 17 20 23 24
26 19 29 26 29 28 25 19 17 7 6 4 6 9 12 8 10 7 16 29 24 20 21 21 19 21 19 16 13 9 9 14 15 15 10 8 10 12 16 13 16 19 23 29
15 14 22 34 28 26 20 23 13 10 7 6 5 6 9 4 2 5 15 23 19 17 18 17 15 15 21 21 19 17 16 13 15 18 19 15 14 16 18 24 28 27 26 30
20 15 22 27 31 30 30 21 13 12 9 12 6 9 12 10 2 5 10 15 19 16 16 15 16 15 14 17 22 22 22 21 21 19 20 21 19 20 23 25 28 32 30 31
39 9 11 23 21 31 33 31 28 15 8 13 11 13 8 6 9 11 11 16 18 17 14 12 15 17 16 15 14 17 24 25 25 25 26 26 27 25 26 28 30 31 31 34
43 14 13 12 20 24 28 29 28 22 16 19 16 13 12 9 10 13 14 15 14 16 14 9 9 14 15 16 15 13 13 17 21 24 27 28 27 26 27 27 28 32 31 34
36 25 22 21 23 23 23 26 29 26 20 17 19 17 19 15 10 10 14 18 19 18 18 12 13 15 15 15 16 15 14 17 19 20 21 21 24 25 24 27 28 31 33 31
35 32 34 29 15 20 21 25 27 30 26 22 19 20 21 19 18 17 15 18 21 20 19 16 15 18 16 17 15 11 8 8 10 15 19 22 23 23 25 27 28 28 28 32
34 27 29 29 34 31 27 23 21 25 26 24 16 19 17 18 19 18 20 19 21 24 21 22 19 19 19 18 13 10 7 7 12 17 19 21 22 22 23 23 25 29 32 36
30 29 22 24 23 29 29 35 28 29 26 20 18 14 20 25 20 15 22 21 23 26 24 27 24 23 21 18 15 11 8 11 15 17 18 18 19 20 22 25 27 30 35 39
18 20 29 20 18 15 23 25 28 31 32 32 28 17 13 19 17 16 21 21 21 23 25 28 28 25 22 19 13 9 8 10 13 13 12 13 16 19 22 26 30 33 35 35
16 14 15 20 27 16 26 23 18 23 30 28 29 25 14 16 17 16 16 20 25 27 28 30 30 25 22 18 12 8 6 7 9 10 12 15 18 22 26 30 33 33 31 30
27 20 16 15 23 21 29 35 24 21 27 18 29 31 20 19 19 16 17 17 24 33 33 34 32 27 24 16 10 8 7 8 10 12 14 18 22 25 29 30 30 29 27 26
28 29 25 21 12 24 29 25 27 24 21 20 21 28 26 25 21 18 20 18 25 34 35 36 33 28 22 15 11 8 8 10 12 14 18 22 25 27 27 26 23 23 23 24
30 29 24 22 15 17 18 26 35 34 27 27 17 22 23 24 17 13 17 24 30 39 41 41 35 29 21 15 11 8 11 13 16 17 21 24 25 24 23 21 20 21 22 24
31 29 31 28 37 20 21 23 22 27 31 31 27 19 20 16 12 13 18 22 30 42 44 41 32 24 18 14 10 9 11 14 18 19 23 22 22 20 20 20 21 22 24 25
33 31 31 26 30 31 28 19 19 18 21 26 26 24 21 15 15 13 17 23 27 41 44 36 25 20 16 9 9 11 14 16 19 22 21 19 18 18 20 21 23 24 24 24
28 31 33 34 31 26 22 22 22 19 21 23 20 19 17 17 17 19 24 23 24 41 41 29 23 19 11 8 14 14 15 19 22 20 17 17 17 19 20 21 22 23 23 24
37 30 35 29 26 29 29 22 20 20 21 26 22 20 19 19 21 22 24 18 24 41 36 31 25 18 12 10 14 20 19 20 19 16 16 16 17 18 20 21 21 21 23 25

GFSCGP_700_spd_168.txt.gz
Wind_Speed
25 18 20 16 12 3 7 5 3 1 5 3 4 3 3 2 5 6 11 12 10 10 10 11 11 13 14 16 17 18 17 17 16 13 13 13 12 13 12 11 12 12 13 13
21 26 19 14 12 8 7 6 3 2 4 5 5 7 8 8 3 4 7 10 10 10 10 10 10 11 12 13 13 14 13 12 12 12 11 11 11 10 9 11 12 12 12 13
25 26 20 19 14 12 11 8 3 5 4 8 5 9 14 13 11 9 9 10 10 9 10 11 10 9 9 10 10 10 11 11 11 11 12 11 9 7 9 11 11 14 13 13
28 24 25 22 21 17 15 12 8 7 6 5 5 8 11 16 17 14 12 13 13 12 12 12 12 11 10 9 10 9 8 9 9 8 7 7 7 8 11 10 11 12 12 11
32 26 27 24 26 21 17 9 9 8 11 9 9 10 11 14 19 21 18 15 15 14 13 13 13 12 12 11 8 8 7 7 6 6 7 7 7 9 11 10 11 10 13 12
27 23 25 31 21 20 19 14 9 11 10 12 11 14 16 10 13 17 21 20 18 16 14 14 15 14 12 13 13 14 13 8 5 1 3 6 7 9 11 11 13 14 14 13
26 23 27 27 26 18 20 19 15 10 8 5 9 11 7 9 4 8 19 26 25 21 17 15 14 12 12 10 14 12 9 7 5 4 1 5 9 13 12 13 14 18 18 20
31 29 26 31 32 26 27 27 19 12 11 8 8 10 12 9 9 7 17 23 28 24 22 18 13 12 12 9 7 11 13 12 9 6 1 3 10 12 15 15 12 14 16 19
33 31 29 24 26 28 29 34 27 18 5 7 15 13 11 9 8 10 12 25 29 31 29 22 19 17 15 13 12 10 10 13 16 15 12 7 8 11 15 17 21 21 22 24
19 28 23 28 24 26 26 28 22 20 11 13 11 12 10 8 3 7 19 26 30 26 28 25 24 21 18 17 16 15 14 12 12 15 18 20 18 15 17 20 22 25 28 31
20 21 24 28 32 32 25 24 29 22 23 13 7 15 14 10 6 3 7 20 25 21 18 17 18 19 20 20 21 21 20 19 19 18 19 22 25 24 24 23 25 27 30 34
31 19 22 32 28 29 32 32 28 21 15 20 14 8 8 10 12 9 8 17 22 23 20 19 20 21 22 22 24 24 25 25 24 25 24 25 28 29 29 29 30 31 34 30
39 24 24 25 22 28 33 36 34 31 24 23 20 20 9 9 9 13 16 17 23 25 21 16 12 19 22 23 24 22 21 22 24 27 27 30 31 30 32 32 31 31 29 30
38 31 34 31 30 29 33 34 33 34 29 27 23 22 12 12 13 12 14 19 21 23 21 19 14 14 17 18 19 18 16 16 15 18 23 25 25 26 25 27 27 28 29 29
34 35 30 28 16 35 32 37 37 38 36 32 26 22 23 17 17 14 18 18 20 22 21 20 17 17 19 19 17 18 17 13 11 14 21 24 23 23 24 25 25 25 27 31
29 28 30 31 19 20 28 34 36 38 38 36 30 25 19 19 21 22 22 19 21 20 21 20 23 22 20 23 20 20 18 14 13 16 20 23 24 24 24 25 25 28 30 33
31 30 27 32 32 27 28 29 27 28 30 29 31 27 20 20 21 23 20 18 23 22 23 25 25 27 24 24 26 23 19 16 15 16 19 22 25 24 23 24 26 29 31 35
28 29 25 26 26 26 33 34 31 27 28 27 26 23 21 20 23 25 23 20 22 24 23 25 28 31 30 29 29 24 21 17 16 17 18 18 18 18 20 24 27 31 34 36
17 27 25 28 27 22 28 26 28 33 34 29 28 26 26 21 22 24 25 23 25 27 24 26 31 33 35 33 29 24 22 19 17 15 16 15 16 19 22 26 30 32 32 31
19 24 24 24 30 25 26 22 19 20 32 28 31 31 29 28 23 18 21 22 25 27 29 30 34 35 38 34 29 25 22 19 17 13 14 16 18 22 25 28 30 28 26 25
26 22 26 24 27 30 20 29 20 29 25 22 25 24 30 35 25 20 20 24 25 25 30 34 35 38 40 35 30 26 22 17 14 13 14 17 21 23 26 28 25 23 23 25
32 26 28 28 25 23 19 24 36 24 25 19 19 24 19 25 35 28 23 21 22 25 30 36 38 42 42 37 29 24 20 15 13 13 18 19 22 25 26 23 21 22 23 24
31 36 32 28 32 11 20 16 21 23 20 24 23 25 18 24 32 26 20 15 15 16 22 33 40 43 39 31 25 22 15 14 11 16 20 20 21 23 22 20 21 21 21 21
29 23 28 24 28 26 20 16 16 15 18 23 25 25 27 17 18 24 21 17 15 20 26 33 42 42 36 27 23 17 13 10 14 23 20 21 24 21 20 19 20 19 19 20
27 29 27 27 22 17 26 28 21 15 14 16 19 21 23 25 24 25 19 15 18 21 22 29 39 39 35 28 23 21 15 15 19 20 20 23 22 19 18 19 19 18 17 19
35 21 34 31 26 26 18 17 15 14 17 20 20 17 23 25 23 20 15 16 18 22 21 28 39 36 32 28 27 23 17 20 16 18 22 21 18 18 17 18 16 17 17 19

GFSCGP_700_spd_171.txt.gz
Wind_Speed
22 20 23 23 13 9 10 3 10 7 5 5 3 7 8 10 9 9 10 10 9 8 5 7 8 8 10 12 13 14 14 14 15 15 14 16 13 13 12 9 10 12 14 13
23 27 23 20 16 10 5 8 8 5 3 4 6 6 7 11 10 9 11 12 12 11 9 7 9 10 10 11 12 13 11 10 10 10 10 11 11 10 9 8 10 12 13 12
31 29 22 21 15 14 15 14 10 5 4 7 5 10 12 11 11 12 11 12 13 14 12 8 8 9 10 11 11 12 11 10 9 9 10 9 9 8 9 9 10 11 13 10
32 26 25 19 20 19 19 13 4 4 8 7 8 1 14 14 14 14 14 14 15 16 13 9 8 9 8 8 8 10 10 10 10 8 8 7 8 9 10 9 10 9 10 10
37 31 26 29 27 22 14 11 12 8 9 9 13 11 17 16 16 16 16 16 16 16 12 10 11 10 8 10 9 8 8 8 8 8 8 7 8 9 10 10 11 11 11 10
34 31 27 29 26 24 24 8 11 11 13 18 14 15 17 18 15 16 17 17 18 18 17 13 11 12 15 16 15 14 11 9 6 6 5 4 7 10 11 12 12 13 12 16
38 35 32 27 29 27 23 18 18 14 14 11 20 14 7 12 11 14 18 20 20 20 19 15 13 12 13 14 12 9 7 7 4 2 1 5 8 10 12 15 15 15 17 15
37 40 33 32 33 30 30 28 22 15 12 14 11 11 10 11 8 10 15 18 21 21 21 20 13 12 11 11 12 12 9 8 8 5 4 5 8 9 12 14 17 19 20 16
37 40 34 32 32 34 29 35 29 28 20 12 20 16 16 13 13 13 13 17 22 23 22 22 20 14 15 12 10 9 9 10 12 14 14 13 12 12 14 17 19 19 21 22
26 32 33 32 27 36 36 31 32 33 15 13 12 19 18 19 16 15 15 21 22 24 23 22 23 21 17 14 13 13 14 13 13 15 15 17 19 21 21 21 22 23 25 26
30 29 34 31 38 36 38 32 38 29 25 13 12 17 17 17 15 10 13 23 24 26 23 21 22 23 22 20 19 18 17 17 17 18 21 20 22 23 25 27 29 28 29 31
39 20 30 35 31 32 34 32 37 31 25 25 17 7 23 17 14 10 7 19 22 23 22 21 21 22 22 20 23 20 20 20 20 22 23 25 27 28 30 31 32 32 33 34
41 31 30 30 32 33 36 36 32 34 27 22 19 14 12 13 13 11 10 15 22 24 23 22 22 22 22 21 23 24 23 23 22 22 23 27 30 31 31 32 31 28 28 31
43 36 32 32 34 36 40 38 38 33 34 25 26 19 14 12 11 11 12 16 21 26 25 25 20 17 14 15 20 23 23 22 20 18 19 21 25 27 27 26 27 28 29 29
44 47 35 32 30 33 35 41 37 42 37 34 28 21 20 11 13 13 13 16 22 28 27 27 24 20 16 16 20 20 21 20 18 19 18 19 23 25 25 26 28 28 28 30
42 41 41 35 33 30 37 40 44 41 39 35 30 24 13 17 14 17 11 15 17 18 27 29 26 24 20 19 22 23 23 21 20 19 17 20 25 26 26 26 27 29 30 32
38 39 40 39 35 31 32 39 39 44 40 37 36 29 23 17 16 19 21 17 22 19 20 23 27 27 25 25 25 26 25 24 23 20 18 22 26 27 27 27 27 28 30 32
35 36 32 37 31 31 26 29 31 33 38 38 35 31 27 24 19 20 19 20 21 22 27 24 24 26 27 29 29 29 30 27 24 21 21 25 26 25 23 24 26 29 31 33
37 34 29 33 38 31 33 31 31 28 28 28 28 28 24 23 25 23 22 22 22 28 26 27 25 26 28 30 33 34 32 28 26 23 23 24 23 23 22 24 27 30 32 30
31 35 35 29 33 28 33 31 27 32 38 29 26 28 29 28 27 25 20 23 24 32 28 30 28 28 31 33 33 35 34 29 26 23 23 21 19 18 28 42 32 29 28 25
30 33 40 33 32 29 26 26 29 31 29 26 33 32 31 31 29 23 21 27 26 30 30 31 31 32 33 33 34 36 34 28 26 23 21 17 20 38 34 27 29 25 24 25
35 33 35 37 28 24 25 23 34 25 22 17 26 27 29 30 28 29 32 24 22 25 26 27 30 33 34 34 36 36 31 28 25 24 19 16 23 32 30 26 25 22 24 24
35 38 34 34 40 13 23 25 24 23 21 22 23 21 25 23 23 34 40 34 28 23 21 23 21 19 27 35 35 36 32 29 27 24 21 23 22 22 24 25 24 23 22 23
28 31 33 23 27 32 17 21 18 20 23 21 19 23 20 23 21 32 31 36 27 21 17 17 20 25 30 34 38 37 34 30 27 26 24 22 22 20 22 22 22 22 22 21
25 26 28 32 21 23 25 18 16 19 20 20 22 23 24 23 28 18 20 28 25 20 16 17 19 23 28 34 37 35 32 29 29 26 21 22 19 18 22 21 21 21 20 19
32 23 29 24 25 23 17 27 25 20 17 17 18 16 17 25 29 25 21 27 23 15 13 19 23 26 27 32 34 33 32 30 26 22 22 21 18 21 21 18 20 20 19 16

GFSCGP_700_spd_174.txt.gz
Wind_Speed
22 19 23 17 18 18 19 15 27 18 10 6 6 15 15 15 11 10 11 8 10 10 3 9 11 8 10 12 14 14 13 13 12 10 10 9 7 7 8 8 10 10 13 14
24 28 23 16 14 19 11 17 17 12 7 3 11 18 15 15 12 11 12 12 11 12 7 7 8 11 11 10 12 12 11 11 10 9 8 8 8 7 4 6 8 10 12 9
30 27 24 20 20 18 20 15 8 11 7 5 8 18 17 13 12 12 13 13 14 15 8 9 9 9 11 12 12 11 11 10 9 9 9 7 6 4 4 5 6 6 7 9
30 27 25 24 18 18 17 8 7 7 8 8 10 10 17 18 14 16 15 16 18 17 9 9 11 11 11 11 12 11 10 9 8 7 6 5 4 4 5 6 6 7 9 10
36 30 30 26 25 19 16 13 13 8 7 10 16 8 14 20 18 17 17 16 17 18 11 11 11 12 12 11 11 11 10 9 8 7 6 5 4 5 6 7 9 11 12 13
34 30 28 28 18 21 16 8 4 6 10 16 14 10 13 24 19 19 18 19 19 18 13 12 12 15 16 15 16 14 13 11 8 6 3 1 2 5 6 9 11 14 17 20
38 38 31 28 26 25 23 21 10 10 12 14 15 16 11 20 19 18 19 21 21 20 19 13 12 12 12 13 12 10 9 8 6 4 1 2 4 7 8 11 13 16 17 19
39 40 39 30 28 29 29 26 20 10 11 17 9 9 10 18 13 17 19 20 21 22 21 16 13 14 12 11 8 5 3 1 1 3 5 6 7 8 9 10 13 16 19 19
38 39 35 35 28 31 29 31 23 27 22 14 12 10 14 18 15 14 19 21 23 22 22 20 16 13 14 12 10 7 5 6 6 7 10 12 13 14 13 15 18 18 21 21
30 31 34 35 27 32 33 26 29 30 17 14 15 18 17 22 16 15 15 21 22 24 23 23 20 16 15 14 12 11 9 7 9 10 12 13 15 17 19 22 23 25 27 28
40 33 33 35 38 37 35 36 30 30 28 17 5 15 22 29 21 19 20 18 23 23 24 24 22 22 19 18 16 12 12 10 11 12 14 17 19 20 21 23 25 27 28 28
42 33 34 42 36 34 32 36 32 29 30 28 20 19 24 22 18 18 16 16 21 24 22 26 22 23 24 20 18 16 14 12 11 12 14 18 21 24 26 25 28 28 29 29
44 41 26 29 37 35 39 38 37 33 33 29 17 5 12 23 20 16 13 14 23 23 24 24 22 23 24 23 19 19 17 13 12 14 16 18 20 24 24 25 26 26 28 29
45 39 34 29 32 36 35 37 38 37 35 34 29 17 11 17 15 14 11 17 21 26 26 24 25 26 28 23 22 20 18 16 16 16 17 19 20 21 22 23 24 26 29 29
48 46 39 31 29 34 34 37 36 38 36 34 28 21 19 15 15 15 16 16 17 25 27 31 32 32 25 18 17 18 19 19 19 19 21 19 19 20 21 23 26 28 31 33
48 43 42 38 31 29 36 35 38 38 35 34 32 22 23 22 21 19 15 22 19 23 29 32 28 28 26 23 21 22 22 22 21 22 20 20 20 20 21 25 29 32 34 35
40 44 41 37 35 32 32 39 40 39 39 36 35 31 21 10 11 12 18 18 17 18 24 28 29 27 28 27 26 24 24 24 25 24 24 22 21 20 21 23 24 32 35 32
40 42 38 36 36 26 33 27 34 36 38 36 36 35 30 19 10 19 18 14 16 18 22 23 20 22 26 28 29 29 27 26 27 27 24 23 21 21 20 19 28 36 39 40
39 35 30 33 34 32 35 30 26 27 39 36 39 32 31 24 17 18 18 22 18 21 24 23 23 24 23 25 28 29 30 30 29 29 26 22 20 21 15 22 31 34 30 35
34 38 36 34 33 28 38 29 23 25 21 27 29 35 31 29 24 21 20 24 23 19 25 26 27 26 26 26 28 30 30 29 29 27 26 25 23 18 16 25 30 30 30 31
40 39 37 36 30 29 33 31 28 30 25 24 23 18 21 28 24 20 20 19 20 26 29 30 30 28 29 28 27 29 30 28 27 29 28 25 21 18 20 27 24 26 30 30
26 29 34 34 28 24 21 26 37 31 30 21 26 30 31 29 30 24 22 22 23 27 28 23 24 25 24 25 27 27 26 26 30 31 27 24 23 21 22 23 25 26 29 28
31 27 31 32 38 12 26 23 8 22 26 30 21 14 26 29 28 24 29 29 29 29 23 18 16 18 17 13 16 21 26 29 32 27 24 24 23 21 22 23 23 24 27 26
36 33 28 24 25 36 14 18 16 11 21 23 24 24 16 19 25 26 31 36 34 32 33 22 18 13 12 16 19 22 27 31 29 25 25 24 21 20 23 22 23 26 23 23
31 28 32 31 26 13 27 21 15 13 18 20 22 24 26 19 21 30 28 29 30 33 33 26 15 11 14 16 19 23 27 31 28 26 26 22 19 20 22 22 24 23 22 21
24 30 28 32 30 21 14 23 20 14 15 26 24 27 31 23 13 30 29 31 26 25 27 22 12 12 15 18 21 22 27 31 29 27 25 19 18 20 21 23 24 21 19 19

GFSCGP_700_spd_180.txt.gz
Wind_Speed
23 16 20 16 10 12 13 22 20 17 9 13 22 20 4 12 10 8 2 5 8 11 13 17 15 16 18 18 18 17 16 13 16 16 11 9 7 4 3 4 5 8 10 10
23 25 25 15 10 19 9 12 19 16 13 14 9 12 3 5 10 5 8 2 7 12 14 16 17 18 17 18 18 18 17 16 15 15 11 9 6 5 3 2 2 3 7 8
29 35 25 18 14 20 19 13 13 17 17 17 11 17 15 7 5 6 5 3 6 9 15 16 17 18 20 20 21 21 19 17 16 15 13 10 9 9 6 2 2 4 5 8
29 32 29 23 21 16 21 6 10 15 16 19 23 9 26 16 12 14 9 2 5 14 15 15 17 19 20 20 20 20 19 18 17 16 15 14 12 9 6 2 2 4 7 11
38 32 34 29 28 30 32 14 15 16 27 22 22 20 20 21 25 19 15 5 4 10 14 16 18 19 21 20 20 20 20 21 20 17 14 12 10 7 4 1 2 5 7 11
36 25 28 35 29 25 31 23 26 17 23 16 33 29 15 32 18 16 14 9 8 13 17 18 17 19 19 19 19 21 21 20 19 17 14 12 9 6 3 1 1 5 8 12
32 37 33 30 30 28 26 29 14 9 7 9 24 29 26 25 19 12 16 13 14 16 17 21 23 20 21 19 23 22 22 21 18 15 12 10 7 5 2 1 3 5 8 11
35 28 43 36 36 31 28 32 18 7 5 9 15 10 26 29 21 17 19 13 18 17 18 24 23 21 22 19 21 21 19 17 14 11 9 7 5 3 2 4 8 10 11 13
34 32 46 44 36 32 28 26 21 30 3 2 9 13 16 19 30 26 22 16 17 18 20 23 22 22 21 19 18 17 16 13 9 7 5 3 2 2 3 6 9 11 13 16
18 30 35 48 37 37 35 24 23 19 3 2 3 10 3 30 34 32 29 23 16 18 15 24 25 21 20 18 16 15 13 10 7 5 3 2 2 5 7 9 11 12 13 15
37 21 37 37 37 41 35 36 27 27 16 8 2 7 14 17 34 33 32 26 19 17 21 18 21 19 19 19 18 15 12 9 7 7 5 2 3 6 8 9 9 10 10 16
50 23 32 37 36 39 35 32 30 22 8 6 14 19 10 10 27 34 27 29 23 16 19 20 18 17 14 12 13 14 15 13 10 9 8 6 8 10 10 9 7 7 8 15
44 50 19 33 30 34 36 32 31 29 23 20 9 22 25 28 25 34 30 28 25 20 20 21 20 15 9 7 8 11 13 15 15 12 9 11 12 14 12 8 7 7 6 14
44 40 47 27 31 33 31 34 33 34 26 25 28 28 23 19 27 38 32 31 26 23 26 24 21 13 9 11 10 9 11 12 15 13 15 16 17 15 14 11 11 8 7 13
44 52 45 52 34 22 26 33 35 34 33 28 32 31 25 17 23 35 30 28 27 25 25 28 26 20 16 17 16 13 12 13 13 15 16 16 15 15 16 18 14 8 6 13
45 52 48 44 50 40 35 28 39 39 36 34 34 35 28 12 25 30 30 28 23 26 23 24 27 24 22 21 20 17 14 14 14 16 17 17 18 18 21 21 15 10 8 12
46 54 48 41 45 42 31 32 24 44 44 38 39 40 30 27 32 25 23 21 23 19 17 25 28 27 25 24 25 22 18 18 18 19 20 20 21 22 24 23 16 12 10 13
24 51 49 38 37 14 39 41 34 35 48 37 40 45 34 27 28 27 14 28 23 20 19 22 22 23 23 23 25 25 22 23 22 24 25 25 24 24 25 24 19 15 12 13
27 39 31 34 37 24 35 19 22 27 53 37 38 38 32 23 23 33 22 27 24 24 26 22 18 17 15 18 22 24 25 22 22 26 28 28 26 26 27 24 22 18 14 13
26 44 42 31 31 16 38 37 22 10 23 43 39 38 27 32 32 30 28 28 29 28 28 24 20 19 13 11 13 14 17 22 24 27 29 27 27 29 28 25 23 21 16 15
20 47 47 37 38 20 33 41 25 23 21 14 39 40 40 32 26 21 21 36 33 30 31 28 21 17 13 14 17 19 19 20 23 26 26 27 28 29 28 26 24 23 19 17
22 34 35 34 30 12 29 38 33 30 28 8 7 34 32 39 37 33 32 26 34 32 32 28 23 17 11 9 12 18 20 20 19 20 23 25 27 27 26 24 24 21 20 18
13 20 36 37 37 22 34 28 25 29 32 28 16 15 17 21 25 19 25 28 35 35 30 27 21 16 12 11 15 20 19 18 16 16 19 22 24 24 25 26 21 18 19 17
13 12 26 26 27 28 31 29 23 20 24 34 30 23 26 22 22 23 24 28 28 27 23 20 20 17 13 11 11 17 17 15 15 16 18 19 20 23 25 22 18 17 17 17
8 7 17 30 30 28 26 33 25 21 16 23 27 27 24 27 27 25 27 26 19 18 18 18 19 17 18 14 14 16 16 15 14 13 15 17 20 22 22 21 18 18 17 18
21 12 9 17 30 34 30 30 23 14 12 14 18 26 29 27 26 29 30 28 21 17 17 17 14 16 20 19 17 21 17 11 5 7 8 11 16 20 22 20 18 18 18 19

GFSCGP_700_spd_183.txt.gz
Wind_Speed
24 24 26 16 13 12 13 23 13 10 13 13 17 18 16 5 7 7 4 2 6 12 16 18 19 21 20 19 22 21 17 17 18 17 12 9 9 6 4 4 5 8 9 11
25 31 25 19 15 12 16 17 14 18 16 10 8 11 8 6 5 6 10 3 4 10 15 17 19 19 19 18 19 21 18 17 18 17 14 12 9 8 6 5 3 3 6 9
33 29 26 25 20 17 18 24 13 10 15 13 11 12 15 13 11 9 6 5 7 8 11 15 18 19 20 21 22 22 20 19 20 18 15 14 13 12 8 4 1 3 6 9
30 32 26 27 26 20 18 17 16 12 11 7 10 7 14 19 16 13 12 8 10 12 14 15 17 19 21 22 23 23 22 22 21 19 19 18 15 11 7 3 1 4 7 8
36 33 34 33 32 22 17 14 7 5 7 10 14 10 15 20 26 19 15 14 11 12 14 16 17 19 21 22 22 23 23 23 22 23 21 17 14 10 6 3 1 2 6 8
36 30 30 38 34 25 16 17 17 15 12 8 27 15 22 21 18 17 18 16 16 15 17 21 21 21 21 22 24 24 24 24 23 22 20 16 13 10 7 4 1 3 6 7
32 38 27 26 32 29 24 17 3 3 3 9 14 14 33 7 16 12 18 22 19 19 20 24 24 22 21 22 24 26 26 27 26 23 19 16 13 11 9 5 2 2 5 7
34 24 40 30 32 43 29 20 14 6 3 6 7 12 21 10 16 12 14 15 19 20 21 23 22 21 21 23 26 27 27 25 22 19 16 14 11 9 6 3 1 2 5 7
37 30 43 38 37 34 24 32 30 31 27 8 8 10 16 14 22 23 20 21 17 22 22 24 24 24 23 26 26 24 23 21 19 16 15 12 10 7 5 3 2 3 5 5
15 23 29 43 35 30 30 28 24 21 6 7 5 8 11 8 18 28 23 19 19 20 23 25 24 26 25 25 24 23 21 17 15 14 12 10 8 7 6 4 5 4 5 5
35 19 34 32 41 46 37 35 28 17 18 8 2 9 11 9 19 28 26 24 22 21 20 25 26 25 26 24 23 20 18 16 13 12 11 9 8 9 10 9 9 8 8 6
44 20 17 39 38 37 42 39 36 25 13 11 12 21 18 13 10 22 24 22 25 21 19 20 25 27 25 24 22 19 16 13 11 10 11 11 13 14 14 13 12 13 12 7
44 42 19 19 25 29 36 40 33 31 29 18 12 22 21 14 6 10 22 23 23 27 26 22 24 24 22 21 20 18 15 11 12 14 14 16 18 19 16 16 16 17 12 10
39 44 43 24 30 38 33 37 38 35 29 27 25 29 29 19 16 17 21 31 25 27 30 27 25 23 21 18 15 15 17 17 18 20 20 21 22 20 19 20 18 16 13 12
41 42 41 50 28 20 30 39 39 36 31 28 29 29 34 25 21 18 20 34 32 29 31 33 29 24 19 19 18 16 17 19 19 20 22 22 21 19 19 20 18 17 16 14
24 38 45 44 40 33 26 32 27 30 34 31 33 33 37 31 25 18 20 37 33 30 29 27 29 26 22 14 17 19 17 16 15 15 17 18 18 16 18 20 20 18 18 17
16 30 37 42 43 39 45 45 36 28 32 34 38 33 37 38 29 18 27 38 30 32 28 23 23 29 27 21 16 17 20 18 17 16 19 20 19 17 19 21 22 20 19 18
17 14 29 33 37 13 39 46 40 31 26 31 41 37 39 39 25 17 24 31 30 30 24 19 17 21 25 28 25 26 25 24 23 20 22 25 24 21 22 23 23 22 19 19
26 18 17 32 38 21 40 37 42 40 37 36 38 42 33 36 36 26 21 32 26 22 19 17 14 15 16 23 27 27 29 30 29 25 25 27 25 24 25 25 25 21 20 19
29 25 24 24 24 17 30 36 35 31 42 36 38 40 36 30 34 32 25 32 25 19 21 20 21 20 21 20 22 24 23 25 25 25 24 24 23 26 27 27 24 21 20 18
33 31 35 37 28 27 26 37 29 32 27 28 32 35 40 45 33 25 21 24 27 24 24 24 27 24 19 20 19 21 17 14 14 16 19 22 24 26 27 26 23 20 20 17
32 28 31 40 21 13 26 34 45 45 32 19 16 25 40 29 32 24 26 32 32 26 30 27 28 26 22 18 17 17 17 14 14 17 19 21 21 22 23 23 21 21 19 17
8 11 25 40 51 16 17 35 42 36 38 31 20 13 27 34 32 35 30 24 23 29 32 31 31 30 25 19 18 19 15 15 14 16 19 19 18 20 21 21 20 20 18 19
4 10 16 31 40 48 36 18 29 32 37 38 34 18 9 16 23 26 33 38 31 31 29 32 35 31 26 20 21 20 20 17 16 15 16 17 18 19 18 18 19 19 20 19
11 5 17 23 29 34 33 36 26 28 28 38 40 28 20 14 13 20 27 27 26 28 32 32 29 27 27 24 22 19 19 20 18 18 17 18 17 14 14 16 18 20 20 19
27 20 14 21 34 32 31 30 28 25 23 27 35 38 28 20 18 20 18 20 27 32 30 28 26 26 26 25 26 24 20 22 21 17 14 12 11 10 12 15 19 19 20 19

GFSCGP_700_spd_186.txt.gz
Wind_Speed
28 28 29 22 18 16 15 17 16 11 8 13 16 14 10 10 2 4 7 9 14 19 18 20 22 23 23 22 21 20 20 16 17 18 15 10 10 9 6 5 3 5 6 10
32 36 27 21 18 16 11 11 17 14 13 13 14 8 8 5 3 4 6 8 11 18 21 20 22 23 23 22 21 21 21 19 19 19 15 14 12 10 7 4 3 5 8 10
39 37 29 27 24 19 15 14 13 10 11 13 9 12 11 12 11 7 7 11 11 13 16 18 21 22 23 23 21 21 21 21 21 19 17 15 14 13 9 4 2 3 5 6
31 28 34 30 28 24 19 15 18 18 12 7 10 7 15 15 17 13 10 9 12 12 15 18 20 22 22 22 24 24 24 24 23 20 18 17 18 16 11 6 1 3 4 6
35 36 33 35 35 27 25 14 16 18 16 12 12 8 14 7 18 20 14 14 14 14 13 15 18 20 22 25 26 26 26 25 22 21 21 22 19 14 10 5 2 2 4 5
36 33 35 38 33 31 25 8 10 10 13 8 14 11 19 10 7 12 20 18 16 17 17 18 21 24 25 26 28 27 26 25 25 24 24 22 17 14 9 6 4 1 1 4
35 35 31 33 34 32 28 17 4 3 4 7 2 10 24 11 5 8 22 22 21 19 23 24 24 24 26 25 26 27 27 26 27 26 24 20 17 14 9 6 5 3 3 5
26 26 31 29 43 39 33 26 10 6 4 3 3 9 6 8 10 11 16 21 22 21 26 24 22 22 22 24 25 26 26 28 28 26 23 20 17 14 11 9 6 5 5 6
37 26 43 33 39 41 27 31 25 7 4 2 5 19 18 15 9 17 17 27 25 23 25 24 23 23 23 24 25 26 29 28 26 23 20 18 16 13 11 11 8 7 7 7
17 23 21 42 28 33 39 39 23 14 3 2 7 15 22 13 8 24 22 23 24 22 24 26 24 24 24 25 26 28 27 24 22 21 18 16 15 13 13 12 9 11 9 10
29 24 34 28 42 41 37 31 23 17 12 8 1 12 19 11 11 19 20 20 23 24 24 26 26 26 25 28 30 28 27 25 23 20 18 15 13 13 13 13 13 13 12 13
45 14 20 34 39 41 44 41 30 20 11 13 9 21 15 11 7 22 20 19 24 23 23 24 24 28 30 31 28 27 25 24 20 18 16 14 14 15 16 15 16 16 15 17
47 33 17 12 31 30 48 42 42 35 25 26 10 19 15 14 5 29 23 20 20 24 23 24 27 28 26 26 24 24 22 19 18 17 15 15 16 18 17 19 20 18 19 19
40 40 40 24 24 38 38 45 48 42 33 29 33 31 16 14 10 13 27 23 21 21 23 24 27 27 23 22 22 21 21 21 19 19 18 17 19 20 21 23 21 20 19 20
26 35 42 45 22 27 38 38 42 47 44 32 37 33 24 23 19 13 8 11 19 30 27 27 27 28 24 21 21 20 20 19 19 20 21 21 23 25 24 24 21 19 18 19
15 20 37 44 42 30 23 35 37 42 46 42 40 37 26 24 22 22 19 16 17 30 36 34 30 28 29 25 19 21 20 22 22 23 23 23 24 24 22 21 21 19 17 19
4 14 23 38 42 34 40 40 37 41 40 39 43 40 27 29 27 28 25 19 20 33 37 37 36 32 29 27 23 24 24 23 22 22 21 21 21 21 19 19 20 20 18 19
19 8 7 10 32 19 39 48 41 36 40 39 42 40 32 30 29 32 30 23 18 32 35 33 32 34 32 27 25 24 24 26 26 23 23 24 24 23 21 22 23 22 19 21
25 20 9 8 32 20 32 30 50 46 45 41 36 38 35 35 30 33 31 24 21 31 32 30 23 24 25 28 30 26 26 26 27 27 26 27 28 28 26 25 25 25 22 22
26 25 24 8 11 12 25 25 31 33 47 45 37 35 36 36 38 37 27 23 23 33 29 27 27 20 21 19 23 27 29 28 29 30 30 29 29 29 28 27 28 27 24 23
28 34 34 33 10 19 20 24 25 34 31 45 41 39 40 43 40 31 28 25 27 32 31 26 27 27 21 21 24 26 28 30 26 26 27 28 28 28 27 28 28 25 23 21
24 32 29 28 12 19 16 33 38 39 41 31 42 38 41 42 42 34 30 29 28 30 25 28 24 25 24 25 24 24 24 27 26 25 26 27 28 27 27 26 24 21 21 18
8 12 20 27 34 22 24 26 31 31 24 33 24 31 30 23 33 33 30 33 25 30 27 25 27 25 29 29 27 27 21 23 24 24 25 26 26 25 23 21 19 19 18 15
10 9 16 29 28 38 18 25 29 28 27 33 31 25 22 12 22 29 29 32 27 28 29 28 29 30 30 33 28 24 23 24 25 24 24 24 25 23 19 16 15 17 14 14
5 3 17 22 22 26 38 36 25 20 28 30 38 38 31 18 20 24 28 32 30 28 27 29 31 33 33 34 29 25 25 26 25 24 25 24 23 19 15 15 16 15 14 15
13 10 11 5 12 25 30 41 45 35 23 30 32 37 38 29 17 18 23 27 31 36 34 32 34 31 34 31 26 24 24 23 21 22 24 24 21 17 15 15 16 15 14 14

GFSCGP_700_spd_192.txt.gz
Wind_Speed
29 26 30 26 24 17 8 10 10 8 8 8 10 10 12 8 8 9 10 18 20 22 22 22 22 22 22 22 21 18 18 14 15 18 20 15 10 8 6 4 3 3 5 6
28 35 30 27 23 21 16 13 13 11 10 10 10 12 12 12 8 11 14 14 19 23 26 25 25 26 26 24 21 19 18 16 18 22 21 16 13 10 7 4 1 2 3 6
40 32 29 29 26 24 20 16 12 12 8 11 11 15 15 16 14 16 15 16 18 24 27 25 25 25 27 27 24 21 20 20 22 23 20 16 14 12 10 6 2 1 4 6
37 32 30 33 32 28 25 17 13 10 10 12 5 12 11 16 16 19 16 16 18 22 26 25 25 26 27 27 26 23 23 24 24 23 20 19 17 15 13 6 3 2 3 5
33 35 34 36 37 31 26 15 13 11 14 14 13 10 11 13 19 21 20 18 17 18 21 22 24 24 26 28 27 25 25 27 27 24 23 22 20 19 14 8 4 3 4 5
31 27 33 38 35 32 25 15 14 13 14 17 18 11 10 13 16 19 21 21 16 19 20 21 22 25 28 30 29 28 28 28 27 26 26 25 24 21 15 10 7 6 7 7
29 33 29 25 34 32 29 24 18 13 13 13 8 10 22 6 2 10 18 20 19 18 20 23 26 28 30 31 31 30 29 29 29 29 29 28 25 21 16 12 9 10 10 11
32 34 32 29 37 36 37 33 23 11 12 15 10 10 9 7 6 10 15 18 22 19 21 23 23 25 28 31 31 30 30 30 31 32 32 29 26 22 17 14 12 13 13 13
33 40 38 32 34 39 36 41 31 18 14 15 17 17 14 13 10 11 17 25 26 21 22 23 23 24 26 29 30 30 31 32 34 35 34 30 26 22 18 16 15 14 14 16
21 29 25 37 28 35 37 37 34 25 18 14 18 14 12 8 9 10 20 23 24 22 23 24 24 25 27 30 31 32 32 34 37 36 33 30 26 22 20 18 15 15 16 16
31 26 34 31 37 37 37 35 39 31 26 13 12 17 16 10 9 7 20 22 23 21 25 25 25 26 29 32 33 33 33 36 38 35 33 30 26 23 20 18 18 17 17 17
40 24 26 38 37 38 36 38 38 33 27 26 16 13 9 7 9 6 19 20 22 21 26 23 25 27 29 31 33 33 34 36 38 36 33 29 26 24 20 19 19 18 17 19
32 30 28 26 35 36 41 42 39 38 30 30 20 13 8 2 8 12 19 19 23 25 25 24 26 27 26 28 31 32 33 35 36 35 33 29 27 22 19 20 21 18 19 20
34 30 37 35 37 41 42 40 41 42 39 32 34 27 11 6 3 14 18 19 25 27 26 25 25 26 28 27 27 29 32 33 33 34 31 29 25 21 22 23 21 20 20 22
15 29 34 34 26 32 38 41 42 43 44 39 30 32 21 11 1 12 19 20 25 24 24 25 25 26 27 29 29 28 29 31 31 31 30 28 24 22 24 22 22 23 23 23
10 21 27 31 30 21 39 41 42 42 42 40 35 28 28 18 9 9 17 24 26 23 24 23 24 25 26 28 31 31 30 29 30 30 30 27 24 23 23 22 24 24 22 22
4 11 18 30 33 28 28 40 44 42 40 42 41 37 24 21 20 13 11 22 24 26 24 24 23 23 26 28 30 32 34 31 31 31 31 28 25 24 24 25 25 24 21 22
7 4 8 21 31 28 33 30 35 36 42 41 41 38 33 24 23 19 15 17 26 24 22 22 22 26 26 28 30 29 35 37 33 34 31 28 27 28 29 29 28 27 25 26
17 8 8 18 29 26 31 30 33 35 36 33 42 41 32 26 29 30 23 20 21 24 25 20 23 22 32 31 32 32 34 35 36 35 33 32 31 30 31 33 31 32 30 29
22 18 14 14 23 24 24 28 22 29 39 32 31 32 35 32 31 29 30 26 23 22 18 18 22 22 32 38 36 36 32 34 36 37 35 32 31 31 34 33 35 33 31 31
24 21 24 20 15 19 8 25 21 28 29 28 31 31 33 35 35 29 21 27 24 22 21 20 22 25 33 32 40 41 38 34 30 34 35 34 32 32 34 38 38 33 30 30
23 20 22 23 19 14 16 11 21 25 29 17 11 29 35 45 44 43 36 32 28 26 24 21 23 25 35 35 34 34 39 36 38 39 39 40 39 40 42 43 36 27 25 25
13 22 26 23 26 10 19 23 23 29 24 26 32 19 20 30 39 42 43 39 31 28 28 28 28 28 32 37 34 32 30 33 35 37 39 37 33 31 29 29 27 23 23 22
15 18 14 13 19 27 18 22 25 28 27 30 29 30 36 26 23 39 36 38 38 35 36 38 33 32 32 34 35 35 33 33 31 32 31 31 30 29 29 30 30 29 26 23
9 9 14 16 10 20 27 34 32 28 30 27 24 31 30 40 28 26 39 41 36 37 39 42 31 34 36 35 34 38 36 36 37 37 37 34 33 30 30 31 30 29 25 25
3 5 9 7 19 20 23 33 36 38 35 31 33 34 31 32 35 30 28 30 34 33 34 33 30 34 37 38 38 39 43 40 44 42 40 39 32 29 32 30 31 29 26 26

GFSCGP_700_spd_195.txt.gz
Wind_Speed
26 25 29 27 25 25 9 13 13 7 9 5 10 8 11 17 10 10 12 18 25 26 24 25 25 24 26 24 23 21 19 16 17 18 16 13 9 6 4 3 3 5 6 8
30 35 31 27 26 26 18 20 9 9 7 8 13 13 12 15 14 17 14 18 23 25 28 27 27 28 25 24 22 21 19 17 17 19 19 17 13 10 7 3 2 4 6 9
39 36 29 30 29 27 23 19 13 14 8 12 15 18 18 17 17 20 19 17 22 26 28 29 30 30 26 24 23 21 20 18 18 22 21 16 12 9 7 4 1 3 6 8
38 34 33 32 33 29 29 20 15 12 12 19 11 21 18 21 20 22 22 24 23 26 27 27 29 30 27 26 25 23 21 21 21 23 21 19 16 13 11 5 2 2 4 5
37 37 39 34 35 30 30 21 20 16 18 19 19 12 11 18 19 23 24 24 24 26 29 28 29 29 25 27 27 24 24 24 25 24 22 19 18 15 11 8 4 2 3 5
31 34 36 41 31 32 28 24 17 16 20 21 22 19 19 23 17 18 23 25 26 25 28 29 29 27 25 26 28 28 27 27 27 26 24 23 21 18 15 11 6 4 5 7
29 36 35 36 37 32 32 29 18 17 16 15 15 22 14 5 8 14 21 26 27 25 27 29 31 29 27 28 29 29 29 29 29 28 28 26 23 21 17 12 9 7 8 10
33 30 40 36 36 36 37 37 24 19 16 16 14 14 14 18 8 8 14 22 26 27 27 28 30 27 28 29 30 30 31 31 31 31 30 28 25 23 19 14 12 9 10 13
37 38 36 37 37 35 36 42 34 33 15 15 4 22 16 11 11 8 11 22 28 28 27 28 29 27 28 29 30 31 31 32 33 34 33 30 27 24 20 16 12 12 12 14
35 30 35 40 32 37 40 35 35 37 18 3 16 23 21 18 13 11 12 25 29 28 27 27 28 27 28 29 30 31 31 33 35 37 35 31 27 24 21 18 15 13 13 15
38 31 30 33 44 38 41 41 39 35 35 7 12 34 24 14 13 7 15 23 28 28 28 27 26 27 28 30 32 32 33 35 38 39 35 30 27 25 22 19 17 14 16 17
39 37 31 42 34 39 41 42 39 35 33 27 14 20 28 18 8 6 18 23 25 26 27 26 26 27 28 31 32 34 34 36 38 38 34 30 28 26 24 21 17 15 17 19
23 41 31 32 41 39 42 43 42 36 35 32 10 21 8 10 9 11 19 22 25 27 27 26 26 26 27 30 33 34 35 37 38 36 33 31 29 27 25 22 17 16 19 20
24 27 39 34 36 39 42 41 41 40 38 34 28 16 22 11 7 16 20 21 25 27 28 27 26 24 26 29 32 33 34 36 37 34 31 31 29 27 25 23 17 18 20 22
15 23 34 37 35 33 40 42 40 44 39 41 32 25 27 12 9 17 18 21 24 27 28 26 22 23 25 27 28 30 33 35 34 33 32 31 29 28 27 23 20 20 22 24
16 23 31 36 34 32 34 40 44 41 42 39 34 31 27 6 8 19 18 21 24 25 27 25 22 23 24 22 24 26 30 31 31 31 32 31 30 30 28 24 21 22 24 26
10 19 29 33 35 34 32 42 43 42 41 40 41 33 23 22 14 12 18 20 24 23 25 23 21 21 21 23 24 26 27 29 32 32 32 31 31 32 29 26 25 27 27 23
8 9 18 31 30 30 27 32 36 41 40 40 38 36 31 20 18 14 14 19 22 24 23 23 23 23 22 24 27 27 28 28 31 32 33 33 34 33 31 29 27 29 30 31
17 12 13 23 33 25 30 26 29 36 42 38 38 35 28 26 18 18 18 16 16 21 23 24 24 23 26 25 24 25 31 35 34 34 36 37 36 35 32 30 30 31 31 31
21 18 17 17 24 28 30 29 25 26 32 34 36 35 35 28 33 29 23 20 19 18 20 26 25 26 27 28 31 32 30 29 36 36 36 38 39 35 33 33 34 35 34 34
30 24 24 19 16 19 24 26 28 28 24 27 29 29 30 31 31 25 24 22 24 21 19 22 22 23 23 26 34 38 38 34 27 32 36 39 39 37 35 35 37 35 36 37
34 26 27 25 18 18 5 10 11 19 19 18 15 24 34 28 29 26 25 24 19 24 25 27 25 20 19 23 26 36 44 38 36 35 38 40 41 41 39 36 38 37 39 39
31 36 24 28 29 7 4 5 12 16 19 25 26 24 20 30 29 30 31 30 31 25 30 28 27 25 23 20 25 29 33 40 43 43 41 39 41 42 41 40 40 42 45 37
17 16 31 16 26 28 14 14 19 31 24 27 30 24 21 24 29 30 31 31 31 37 37 30 31 31 28 25 28 28 38 37 36 37 42 44 44 44 45 44 37 34 32 27
8 11 22 20 14 19 12 24 25 25 31 32 32 34 37 33 28 29 32 37 34 33 37 35 37 34 33 32 32 32 38 41 37 35 34 36 41 44 37 32 30 29 27 26
7 6 8 9 12 19 16 25 33 27 26 31 30 30 29 29 38 33 36 31 31 38 36 38 34 32 34 38 35 36 38 43 43 37 38 39 40 39 37 35 31 29 27 27